Location: Newark
(52.3500°N, 175.9667°E)
Time: 22:35:31
(UTC+00:00)

Altair - Pass Details

Date: 02 May 2021
Orbit: 1501 x 1683 km, 47.2° (Epoch: 05 May)

Event Time Altitude Azimuth Distance (km) Brightness Sun altitude
Rises 13:46:32 0° 206° (SSW) 4,924 - -19.1°
Reaches altitude 10° 13:50:11 10° 197° (SSW) 3,932 - -18.9°
Exits shadow 13:53:47 21° 181° (S) 3,107 8.6 -18.7°
Maximum altitude 13:58:35 31° 140° (SE) 2,592 8.5 -18.4°
Drops below altitude 10° 14:06:49 10° 83° (E) 3,860 10.1 -17.8°
Sets 14:10:20 0° 74° (ENE) 4,822 10.8 -17.5°
